DECAYED
Showing default

ASTROCAST-0104, 47519 (Decayed)

Orbit data source: Space-Track

ASTROCAST-0104, 47519 was a payload satellite owned by Astrocast (CH) in LEO that was launched on Sun, 24 Jan 2021 UTC via an FALCON 9 launch vehicle from the Air Force Eastern Test Range (AFETR). Payload-class satellites include a variety of spacecraft equipped with specific instruments for various scientific and technological missions. These include communications satellites like Starlink; space stations such as the ISS; scientific satellites like the Hubble; Earth observation satellites from companies like Planet Labs, Umbra, and HawkEye 360; GPS; miniature CubeSats for education and research; and military/defense satellites.

Not visible in the next 10 days
Identifier
47519, 2021-006DK
Orbit
Decayed
Country
Flag of CHCH / SWTZ
Related business
Manufacturer
Astrocast
Mission
Decayed Commercial Communications
Bus & Motor
CUBESAT 3U, Unknown motor
Mass
5 kg wet, 5 kg dry
Launch date (UTC)
2021-01-24 (6 years ago)
Launch vehicle
FALCON 9
Launch site
Air Force Eastern Test Range (AFETR)
Object type
Payload
Rocket body
Debris
Shape & HBR
Box, 0.2 m
Radar Cross Section
0.035 m², Medium (>0.1 m² and < 1m²)

Expand to show TLE details & history
Last TLE update: 9 months ago

TLE from 9 months ago
0 ASTROCAST-0104
1 47519U 21006DK  25331.83490867  .06937029  23926-5  10482-2 0  9994
2 47519  97.2389  32.9740 0008600 290.0442  69.9929 16.34241985269662
Epoch: 2025-11-27T20:02Z
TLE epoch observation values (Epoch: 2025-11-27T20:02:16.109Z)
Latitude
0.00003°
Longitude
25.42075°
Altitude
182.487 km
Speed
7.798 km/s
True Right ascension
02h 11m 53s
True Declination
0° 00' 00"
Sunlit
Object was in full shadow at epoch
Visualization orbit readout
Latitude
Unknown
Longitude
Unknown
Altitude
Unknown
Speed
Unknown
Apparent Right ascension
Unknown
Apparent Declination
Unknown
Sunlit
N/A
Visualization observer readout
Local Sidereal Time
04:20:59
Azimuth
Unknown
Elevation
Unknown
Doppler factor
Unknown
Orbital elements
Apogee altitude
183.611 km
Perigee altitude
172.334 km
Semi-major axis
6,556.109 km
Eccentricity
0.00086
Inclination
97.2389°
RAAN
32.974°
Arg. of periapsis
290.0442°
True anomaly
70.08554°
Mean anomaly
69.9929°
Eccentric anomaly
70.03921°
Mean motion
4.08859 °/min
Orbital period
88.05 mins
BSTAR
0.0010482
Loading maneuver chart data...
Computing Atmospheric mass density...
Loading historical data...
Loading historical data...
Loading historical data...
Loading historical data...
Loading historical data...
Loading historical data...
Loading historical data...

Documentation

Showing up to 5 results
|